{"data":{"norad_id":44879,"epoch":"2026-09-20T05:23:54.085056Z","epoch_age_seconds":85405,"freshness":"FRESH","line1":"1 44879U 19093A   26263.22493154  .00001073  00000+0  10124-3 0  9994","line2":"2 44879  97.7755 346.3780 0012205  95.9865 264.2747 14.95815456366259","mean_motion":14.95815456,"eccentricity":0.0012205,"inclination_deg":97.7755,"raan_deg":346.378,"arg_perigee_deg":95.9865,"mean_anomaly_deg":264.2747,"bstar":0.00010124,"rev_number":36625,"period_min":96.268560016805,"perigee_km":571.35058770368,"apogee_km":588.33501640049,"semimajor_km":6957.9798020521,"source":"CELESTRAK","updated_at":"2026-09-20T09:00:14.569830Z"}}